Weather in Terny

Ukraine / Sumi District     50°59′01″N   33°57′49″E
temp.,
°C
wind,
m/s
gust,
m/s
humid.,
%
clouds,
%
prec.,
mm/h
press.,
hPa
HPBL,
m
27 october, wed
wed2700:00+3ssw5136322 0.0 1028264
03:00+2ssw5126630 0.0 1027244
06:00+2ssw513715 0.0 1025282
09:00+3ssw613740 0.0 1025366
12:00+8sw7106810 0.0 1024707
15:00+10wsw68626 0.0 1022952
18:00+8wsw3867100 0.0 1023291
21:00+6w357531 0.0 102391
28 october, thu
thu2800:00+5w358435 0.0 102490
03:00+4wsw3690100 0.0 1023106
06:00+5sw4991100 0.0 1022194
09:00+6sw51284100 0.3 1021352
12:00+9w51177100 0.0 1021525
15:00+9wnw51184100 0.1 1020521
18:00+9wnw4986100 0.1 1021356
21:00+8nw4109388 0.1 1023326
29 october, fri
fri2900:00+7nw37965 0.0 1024142
03:00+5n35965 0.0 1025101
06:00+4nne33905 0.0 102745
09:00+5nne25825 0.0 1029153
12:00+10ene23650 0.0 1029465
15:00+11e22580 0.0 1029791
18:00+8e22730 0.0 103010
21:00+7ese33810 0.0 103126
30 october, sat
sat3000:00+5se35880 0.0 103172
03:00+4sse34910 0.0 103264
06:00+4sse34920 0.0 103257
09:00+5sse36895 0.0 1033161
12:00+10s45660 0.0 1033491
15:00+12s45562 0.0 1031778
18:00+9sse34715 0.0 103245
21:00+7sse34750 0.0 103259
31 october, sun
sun3100:00+6sse34760 0.0 103262
03:00+5sse34780 0.0 103248
05:00+4sse34800 0.0 103156
08:00+5se36780 0.0 1031141
11:00+11sse46600 0.0 1030513
14:00+12sse45530 0.0 1028778
17:00+8ese47650 0.0 1027105
20:00+7se49710 0.0 1027153